Regional Weather Roundup
Issued by NWS Burlington, VT

Home | Current Version | Previous Version | Text Only | Print | Product List | Glossary On
Versions: 1 2 3 4 5 6 7 8 9 10 11 12 13 14 15 16 17 18 19 20 21 22 23 24 25 26 27 28 29 30 31 32 33 34 35 36 37 38 39 40 41 42 43 44 45 46 47 48 49 50
000
ASUS41 KBTV 162130
RWRBTV
VERMONT REGIONAL WEATHER ROUNDUP
NATIONAL WEATHER SERVICE BURLINGTON VT
500 PM EDT TUE SEP 16 2014

NOTE: "FAIR" INDICATES FEW OR NO CLOUDS BELOW 12,000 FEET WITH NO
SIGNIFICANT WEATHER AND/OR OBSTRUCTIONS TO VISIBILITY.

* THESE REPORTS ARE NOT UNDER NWS QUALITY CONTROL AND/OR DO NOT
  REPORT WEATHER SUCH AS PRECIPITATION AND FOG.

VTZ001>019-162200-
_____VERMONT_____


CITY           SKY/WX    TMP DP  RH WIND       PRES   REMARKS
BURLINGTON     MOCLDY    65  49  56 VRB5      29.93S
MONTPELIER     PTCLDY    60  48  64 N5        29.98S
MORRISVILLE    MOCLDY    61  50  67 VRB3      29.95R
ST. JOHNSBURY*   N/A     61  50  67 MISG      29.92F
MIDDLEBURY*    MOCLDY    62  53  71 CALM      29.94S
RUTLAND*       MOCLDY    63  48  59 W7        29.95S
SPRINGFIELD    MOCLDY    62  50  64 S3        29.95F
HIGHGATE*      FAIR      63  50  62 SW3       29.92S
NEWPORT*       MOCLDY    58  49  71 CALM      29.94S
BENNINGTON     CLOUDY    62  53  72 CALM      29.97S
SUTTON*          N/A     55 N/A N/A MISG        N/A
GALLUP MILLS*    N/A     57 N/A N/A MISG        N/A
UNION VILLAGE*   N/A     63 N/A N/A MISG        N/A
MT. MANSFIELD*   N/A     45 N/A N/A N7          N/A

_____LAKE CHAMPLAIN_____


CITY           SKY/WX    TMP DP  RH WIND       PRES   REMARKS
BURTON ISLAND*   N/A     63  52  67 SE3         N/A
COLCHESTER RF*   N/A     63  52  67 S6          N/A
DIAMOND ISL*     N/A     61  54  77 SW8         N/A

$$

NYZ007-026>031-035-052-083-162200-
_____NORTHERN NEW YORK_____


CITY           SKY/WX    TMP DP  RH WIND       PRES   REMARKS
PLATTSBURGH    PTCLDY    63  51  65 E5        29.92S
SARANAC LAKE   PTCLDY    58  42  55 VRB7      29.94S
MASSENA        PTCLDY    64  46  52 W9        29.94F
OGDENSBURG*    MOCLDY    63  48  59 NW5       29.95S
PARISHVILLE*     N/A     61 N/A N/A W9          N/A
WATERTOWN      PTCLDY    63  49  60 SW10      29.99S
FT DRUM        MOCLDY    62  44  53 W9        29.98S
ALBANY         MOCLDY    65  52  62 W8        29.97F
GLENS FALLS    MOCLDY    65  52  62 S3        29.94F

$$
NHZ002-005-011-162200-
_____NEW HAMPSHIRE_____


CITY           SKY/WX    TMP DP  RH WIND       PRES   REMARKS
LEBANON        CLOUDY    63  52  67 CALM      29.94S
KEENE          CLOUDY    63  46  55 NW3       29.96S
MT WASHINGTON  DRZL/FOG  36  36 100 W36G45      N/A  VSB 0
PLYMOUTH       DRIZZLE   58  56  92 CALM      29.95R
WHITEFIELD     PTCLDY    58  49  72 VRB5      29.94F

$$

_____REGIONAL QUEBEC LOCATIONS_____


CITY           SKY/WX    TMP DP  RH WIND       PRES   REMARKS
MONTREAL       PTCLDY    64  43  45 SW17      29.91S
QUEBEC CITY    PTCLDY    61  48  63 W12       29.85F
SHERBROOKE     CLOUDY    57  52  82 CALM      29.91S

_____REGIONAL ONTARIO LOCATIONS_____


CITY           SKY/WX    TMP DP  RH WIND       PRES   REMARKS
OTTAWA         PTCLDY    63  43  48 W16G22    29.94S

______KEY______
VSB  - VISIBILITY IN MILES
WCI  - WIND CHILL INDEX
HX   - HEAT INDEX
$$



USA.gov is the U.S. government's official web portal to all federal, state and local government web resources and services.